| time (UTC) | temp F | wind direction | speed knots | gust knots | rain 1hr in | rain 24hr in | rain mn in | humidity % | barometer mb |
| 20260503200004 | 61 | 218 | 7.0 | 13.9 | 0.00 | 0.00 | 0.00 | 42 | 1012.9 |
| 20260503195505 | 61 | 233 | 7.0 | 17.4 | 0.00 | 0.00 | 0.00 | 42 | 1013.3 |
| 20260503195003 | 61 | 242 | 6.1 | 17.4 | 0.00 | 0.00 | 0.00 | 43 | 1013.5 |
| 20260503194503 | 61 | 224 | 4.3 | 13.0 | 0.00 | 0.00 | 0.00 | 44 | 1013.6 |
| 20260503194004 | 61 | 234 | 6.1 | 17.4 | 0.00 | 0.00 | 0.00 | 43 | 1013.9 |
| 20260503193503 | 61 | 247 | 7.0 | 17.4 | 0.00 | 0.00 | 0.00 | 42 | 1014.2 |
| 20260503193003 | 61 | 249 | 6.1 | 13.9 | 0.00 | 0.00 | 0.00 | 41 | 1014.4 |
| 20260503192504 | 62 | 252 | 7.0 | 16.5 | 0.00 | 0.00 | 0.00 | 42 | 1014.5 |
| 20260503192004 | 62 | 249 | 7.8 | 16.5 | 0.00 | 0.00 | 0.00 | 41 | 1014.5 |
| 20260503191504 | 62 | 235 | 7.0 | 18.2 | 0.00 | 0.00 | 0.00 | 40 | 1014.4 |
| 20260503191003 | 62 | 232 | 7.8 | 18.2 | 0.00 | 0.00 | 0.00 | 40 | 1014.1 |
| 20260503190503 | 63 | 229 | 7.8 | 16.5 | 0.00 | 0.00 | 0.00 | 38 | 1014.2 |
| 20260503190004 | 63 | 226 | 6.1 | 13.0 | 0.00 | 0.00 | 0.00 | 40 | 1014.2 |
| 20260503185503 | 63 | 241 | 6.1 | 16.5 | 0.00 | 0.00 | 0.00 | 41 | 1014.3 |
| 20260503185004 | 63 | 247 | 7.0 | 16.5 | 0.00 | 0.00 | 0.00 | 39 | 1014.2 |
| 20260503184504 | 63 | 231 | 7.0 | 16.5 | 0.00 | 0.00 | 0.00 | 43 | 1014.2 |
| 20260503184005 | 63 | 217 | 5.2 | 16.5 | 0.00 | 0.00 | 0.00 | 41 | 1014.1 |
| 20260503183503 | 62 | 209 | 5.2 | 13.9 | 0.00 | 0.00 | 0.00 | 44 | 1014.4 |
| 20260503183003 | 62 | 207 | 5.2 | 13.9 | 0.00 | 0.00 | 0.00 | 44 | 1014.4 |
| 20260503182504 | 61 | 224 | 4.3 | 12.2 | 0.00 | 0.00 | 0.00 | 44 | 1014.7 |
| 20260503182005 | 61 | 219 | 4.3 | 11.3 | 0.00 | 0.00 | 0.00 | 43 | 1015.1 |
| 20260503181505 | 61 | 231 | 4.3 | 12.2 | 0.00 | 0.00 | 0.00 | 44 | 1015.1 |
| 20260503181005 | 60 | 234 | 6.1 | 13.9 | 0.00 | 0.00 | 0.00 | 43 | 1015.2 |
| 20260503180504 | 60 | 223 | 5.2 | 14.8 | 0.00 | 0.00 | 0.00 | 42 | 1015.5 |
| 20260503180005 | 60 | 231 | 5.2 | 14.8 | 0.00 | 0.00 | 0.00 | 43 | 1015.4 |
| 20260503175503 | 60 | 230 | 6.1 | 12.2 | 0.00 | 0.00 | 0.00 | 41 | 1015.6 |
| 20260503175004 | 60 | 230 | 6.1 | 13.9 | 0.00 | 0.00 | 0.00 | 41 | 1015.6 |
| 20260503174504 | 60 | 237 | 6.1 | 13.9 | 0.00 | 0.00 | 0.00 | 40 | 1015.7 |
| 20260503174003 | 61 | 249 | 6.1 | 13.9 | 0.00 | 0.00 | 0.00 | 42 | 1015.7 |
| 20260503173503 | 61 | 245 | 7.0 | 13.9 | 0.00 | 0.00 | 0.00 | 41 | 1015.9 |
| 20260503173003 | 61 | 229 | 7.8 | 13.9 | 0.00 | 0.00 | 0.00 | 39 | 1016.0 |
| 20260503172505 | 61 | 225 | 7.0 | 14.8 | 0.00 | 0.00 | 0.00 | 38 | 1016.1 |
| 20260503172004 | 62 | 243 | 7.0 | 17.4 | 0.00 | 0.00 | 0.00 | 37 | 1016.2 |
| 20260503171504 | 62 | 245 | 7.8 | 17.4 | 0.00 | 0.00 | 0.00 | 36 | 1016.2 |
| 20260503171003 | 62 | 249 | 7.8 | 18.2 | 0.00 | 0.00 | 0.00 | 40 | 1016.3 |
| 20260503170503 | 63 | 254 | 6.1 | 18.2 | 0.00 | 0.00 | 0.00 | 38 | 1016.4 |
| 20260503151003 | 59 | 251 | 7.8 | 15.6 | 0.00 | 0.00 | 0.00 | 45 | 1017.5 |
| 20260503150506 | 58 | 245 | 8.7 | 15.6 | 0.00 | 0.00 | 0.00 | 40 | 1017.5 |
| 20260503131003 | 36 | 244 | 2.6 | 8.7 | 0.00 | 0.00 | 0.00 | 81 | 1017.9 |
| 20260503130503 | 36 | 246 | 3.5 | 9.6 | 0.00 | 0.00 | 0.00 | 81 | 1018.0 |
| 20260503110504 | 36 | 322 | 0.9 | 2.6 | 0.00 | 0.00 | 0.00 | 81 | 1017.6 |
| 20260503090504 | 36 | 322 | 0.9 | 2.6 | 0.00 | 0.00 | 0.00 | 80 | 1017.2 |
| 20260503081503 | 36 | 322 | 0.9 | 2.6 | 0.00 | 0.00 | 0.00 | 80 | 1017.3 |
| 20260503081003 | 37 | 322 | 0.9 | 2.6 | 0.00 | 0.00 | 0.00 | 80 | 1017.2 |
| 20260503080503 | 37 | 322 | 0.9 | 2.6 | 0.00 | 0.00 | 0.00 | 80 | 1017.3 |
| 20260503072503 | 37 | 322 | 0.9 | 2.6 | 0.00 | 0.00 | 0.00 | 80 | 1017.2 |
| 20260503072003 | 37 | 322 | 0.9 | 2.6 | 0.00 | 0.00 | 0.00 | 79 | 1017.3 |
| 20260503071504 | 37 | 322 | 0.9 | 2.6 | 0.00 | 0.00 | 0.00 | 79 | 1017.3 |
| 20260503071004 | 37 | 322 | 0.9 | 2.6 | 0.00 | 0.00 | 0.00 | 79 | 1017.3 |
| 20260503070504 | 37 | 322 | 0.9 | 2.6 | 0.00 | 0.00 | 0.00 | 79 | 1017.3 |
| 20260503055003 | 38 | 321 | 0.0 | 1.7 | 0.00 | 0.00 | 0.00 | 78 | 1017.7 |
| 20260503054503 | 38 | 321 | 0.9 | 2.6 | 0.00 | 0.00 | 0.00 | 78 | 1017.7 |
| 20260503054004 | 38 | 321 | 0.0 | 2.6 | 0.00 | 0.00 | 0.00 | 78 | 1017.8 |
| 20260503053503 | 38 | 321 | 0.0 | 1.7 | 0.00 | 0.00 | 0.00 | 78 | 1017.7 |
| 20260503053003 | 38 | 321 | 0.0 | 1.7 | 0.00 | 0.00 | 0.00 | 78 | 1017.8 |
| 20260503052504 | 38 | 322 | 0.9 | 2.6 | 0.00 | 0.00 | 0.00 | 78 | 1017.8 |
| 20260503052003 | 38 | 322 | 1.7 | 2.6 | 0.00 | 0.00 | 0.00 | 78 | 1017.9 |
| 20260503051504 | 39 | 322 | 0.9 | 2.6 | 0.00 | 0.00 | 0.00 | 78 | 1017.8 |
| 20260503051003 | 39 | 322 | 0.9 | 1.7 | 0.00 | 0.00 | 0.00 | 77 | 1017.9 |
| 20260503050503 | 39 | 322 | 0.9 | 1.7 | 0.00 | 0.00 | 0.00 | 77 | 1017.9 |
| 20260503050004 | 39 | 322 | 0.9 | 1.7 | 0.00 | 0.00 | 0.00 | 77 | 1017.9 |
| 20260503045505 | 39 | 322 | 0.9 | 2.6 | 0.00 | 0.00 | 0.00 | 77 | 1017.9 |
| 20260503045004 | 39 | 322 | 0.9 | 2.6 | 0.00 | 0.00 | 0.00 | 76 | 1017.9 |
| 20260503044503 | 39 | 322 | 1.7 | 2.6 | 0.00 | 0.00 | 0.00 | 76 | 1017.9 |
| 20260503044004 | 39 | 322 | 0.9 | 2.6 | 0.00 | 0.00 | 0.00 | 76 | 1017.9 |
| 20260503043503 | 39 | 322 | 0.9 | 1.7 | 0.00 | 0.00 | 0.00 | 75 | 1017.9 |
| 20260503043003 | 39 | 322 | 0.9 | 1.7 | 0.00 | 0.00 | 0.00 | 75 | 1017.9 |
| 20260503042503 | 39 | 322 | 0.9 | 2.6 | 0.00 | 0.00 | 0.00 | 74 | 1017.9 |
| 20260503042003 | 39 | 321 | 0.9 | 2.6 | 0.00 | 0.00 | 0.00 | 74 | 1017.9 |
| 20260503041503 | 39 | 322 | 0.9 | 1.7 | 0.00 | 0.00 | 0.00 | 74 | 1017.8 |
| 20260503041004 | 40 | 322 | 0.9 | 1.7 | 0.00 | 0.00 | 0.00 | 73 | 1017.8 |
| 20260503040503 | 40 | 321 | 0.0 | 1.7 | 0.00 | 0.00 | 0.00 | 73 | 1017.9 |
| 20260503040004 | 40 | 321 | 0.0 | 1.7 | 0.00 | 0.00 | 0.00 | 72 | 1017.9 |
| 20260503035503 | 40 | 321 | 0.0 | 1.7 | 0.00 | 0.00 | 0.00 | 72 | 1017.9 |
| 20260503035005 | 40 | 0 | 0.0 | 0.0 | 0.00 | 0.00 | 0.00 | 72 | 1017.9 |
| 20260503034504 | 40 | 0 | 0.0 | 0.0 | 0.00 | 0.00 | 0.00 | 71 | 1017.8 |
| 20260503034003 | 40 | 0 | 0.0 | 0.0 | 0.00 | 0.00 | 0.00 | 70 | 1017.8 |
| 20260503033505 | 40 | 0 | 0.0 | 0.0 | 0.00 | 0.00 | 0.00 | 70 | 1017.8 |
| 20260503033003 | 41 | 0 | 0.0 | 0.0 | 0.00 | 0.00 | 0.00 | 69 | 1017.8 |
| 20260503032503 | 41 | 0 | 0.0 | 0.0 | 0.00 | 0.00 | 0.00 | 69 | 1017.9 |
| 20260503032003 | 41 | 0 | 0.0 | 0.0 | 0.00 | 0.00 | 0.00 | 68 | 1017.9 |
| 20260503031505 | 41 | 0 | 0.0 | 0.0 | 0.00 | 0.00 | 0.00 | 68 | 1017.9 |
| 20260503031004 | 41 | 0 | 0.0 | 0.0 | 0.00 | 0.00 | 0.00 | 67 | 1017.9 |
| 20260503030504 | 41 | 0 | 0.0 | 0.0 | 0.00 | 0.00 | 0.00 | 66 | 1017.9 |
| 20260503030003 | 41 | 0 | 0.0 | 0.0 | 0.00 | 0.00 | 0.00 | 65 | 1018.0 |
| 20260503025504 | 42 | 0 | 0.0 | 0.0 | 0.00 | 0.00 | 0.00 | 64 | 1018.1 |
| 20260503025003 | 42 | 0 | 0.0 | 0.0 | 0.00 | 0.00 | 0.00 | 63 | 1018.1 |
| 20260503024503 | 42 | 0 | 0.0 | 0.0 | 0.00 | 0.00 | 0.00 | 62 | 1018.1 |
| 20260503024003 | 42 | 0 | 0.0 | 0.0 | 0.00 | 0.00 | 0.00 | 61 | 1018.0 |
| 20260503023504 | 42 | 0 | 0.0 | 0.0 | 0.00 | 0.00 | 0.00 | 60 | 1017.9 |
| 20260503023004 | 43 | 0 | 0.0 | 0.0 | 0.00 | 0.00 | 0.00 | 60 | 1017.9 |
| 20260503022503 | 43 | 0 | 0.0 | 0.0 | 0.00 | 0.00 | 0.00 | 59 | 1017.8 |
| 20260503022003 | 43 | 0 | 0.0 | 0.0 | 0.00 | 0.00 | 0.00 | 58 | 1017.8 |
| 20260503021503 | 43 | 0 | 0.0 | 0.0 | 0.00 | 0.00 | 0.00 | 57 | 1017.8 |
| 20260503021004 | 44 | 0 | 0.0 | 0.0 | 0.00 | 0.00 | 0.00 | 57 | 1017.8 |
| 20260503020503 | 44 | 0 | 0.0 | 0.0 | 0.00 | 0.00 | 0.00 | 56 | 1017.7 |
| 20260503020004 | 44 | 0 | 0.0 | 0.0 | 0.00 | 0.00 | 0.00 | 54 | 1017.7 |
| 20260503015504 | 44 | 0 | 0.0 | 0.0 | 0.00 | 0.00 | 0.00 | 53 | 1017.6 |
| 20260503015003 | 45 | 0 | 0.0 | 0.0 | 0.00 | 0.00 | 0.00 | 52 | 1017.6 |
| 20260503014504 | 45 | 0 | 0.0 | 0.0 | 0.00 | 0.00 | 0.00 | 52 | 1017.5 |
| 20260503014005 | 46 | 0 | 0.0 | 0.0 | 0.00 | 0.00 | 0.00 | 51 | 1017.5 |
| 20260503013503 | 46 | 0 | 0.0 | 0.0 | 0.00 | 0.00 | 0.00 | 49 | 1017.5 |
| 20260503013003 | 46 | 0 | 0.0 | 0.0 | 0.00 | 0.00 | 0.00 | 49 | 1017.4 |
| 20260503012503 | 47 | 0 | 0.0 | 0.0 | 0.00 | 0.00 | 0.00 | 47 | 1017.4 |
| 20260503012004 | 47 | 0 | 0.0 | 0.0 | 0.00 | 0.00 | 0.00 | 47 | 1017.4 |
| 20260503011503 | 48 | 0 | 0.0 | 0.0 | 0.00 | 0.00 | 0.00 | 48 | 1017.4 |
| 20260503011004 | 48 | 0 | 0.0 | 0.0 | 0.00 | 0.00 | 0.00 | 46 | 1017.3 |
| 20260503010503 | 49 | 0 | 0.0 | 0.0 | 0.00 | 0.00 | 0.00 | 45 | 1017.3 |
| 20260503010004 | 49 | 322 | 0.0 | 0.9 | 0.00 | 0.00 | 0.00 | 45 | 1017.2 |
| 20260503005504 | 50 | 321 | 0.0 | 0.9 | 0.00 | 0.00 | 0.00 | 45 | 1017.2 |
| 20260503005003 | 50 | 322 | 0.9 | 2.6 | 0.00 | 0.00 | 0.00 | 44 | 1017.2 |
| 20260503004503 | 50 | 322 | 0.9 | 2.6 | 0.00 | 0.00 | 0.00 | 44 | 1017.3 |
| 20260503004004 | 51 | 322 | 0.9 | 4.3 | 0.00 | 0.00 | 0.00 | 42 | 1017.3 |
| 20260503003504 | 51 | 321 | 1.7 | 4.3 | 0.00 | 0.00 | 0.00 | 40 | 1017.3 |
| 20260503003003 | 51 | 321 | 1.7 | 4.3 | 0.00 | 0.00 | 0.00 | 38 | 1017.3 |
| 20260503002503 | 51 | 321 | 0.9 | 3.5 | 0.00 | 0.00 | 0.00 | 38 | 1017.2 |
| 20260503002004 | 51 | 316 | 1.7 | 7.8 | 0.00 | 0.00 | 0.00 | 39 | 1017.2 |
| 20260503001504 | 51 | 312 | 3.5 | 7.8 | 0.00 | 0.00 | 0.00 | 38 | 1017.2 |
| 20260503001003 | 51 | 311 | 2.6 | 8.7 | 0.00 | 0.00 | 0.00 | 37 | 1017.1 |
| 20260503000503 | 51 | 314 | 2.6 | 8.7 | 0.00 | 0.00 | 0.00 | 37 | 1017.1 |
| 20260503000003 | 51 | 318 | 2.6 | 8.7 | 0.00 | 0.00 | 0.00 | 37 | 1017.1 |
| 20260502235503 | 51 | 320 | 2.6 | 9.6 | 0.00 | 0.00 | 0.00 | 36 | 1017.1 |
| 20260502235004 | 51 | 320 | 2.6 | 10.4 | 0.00 | 0.00 | 0.00 | 36 | 1017.0 |
| 20260502234504 | 51 | 320 | 2.6 | 10.4 | 0.00 | 0.00 | 0.00 | 37 | 1017.0 |
| 20260502234004 | 51 | 318 | 2.6 | 7.0 | 0.00 | 0.00 | 0.00 | 36 | 1017.0 |
| 20260502233503 | 51 | 318 | 2.6 | 9.6 | 0.00 | 0.00 | 0.00 | 36 | 1017.0 |
| 20260502233004 | 52 | 320 | 1.7 | 9.6 | 0.00 | 0.00 | 0.00 | 36 | 1016.9 |
| 20260502232504 | 52 | 324 | 0.9 | 7.0 | 0.00 | 0.00 | 0.00 | 36 | 1017.0 |
| 20260502232004 | 52 | 325 | 0.0 | 7.0 | 0.00 | 0.00 | 0.00 | 36 | 1016.9 |
| 20260502231503 | 52 | 326 | 0.9 | 7.0 | 0.00 | 0.00 | 0.00 | 37 | 1017.0 |
| 20260502231003 | 52 | 334 | 0.9 | 7.0 | 0.00 | 0.00 | 0.00 | 36 | 1017.0 |
| 20260502230504 | 52 | 338 | 0.9 | 5.2 | 0.00 | 0.00 | 0.00 | 36 | 1017.2 |
| 20260502230006 | 52 | 328 | 1.7 | 7.8 | 0.00 | 0.00 | 0.00 | 35 | 1017.1 |
| 20260502225504 | 52 | 323 | 1.7 | 9.6 | 0.00 | 0.00 | 0.00 | 34 | 1017.2 |
| 20260502225004 | 53 | 324 | 0.9 | 9.6 | 0.00 | 0.00 | 0.00 | 34 | 1017.1 |
| 20260502224503 | 53 | 316 | 2.6 | 15.6 | 0.00 | 0.00 | 0.00 | 35 | 1017.1 |
| 20260502224003 | 52 | 313 | 3.5 | 15.6 | 0.00 | 0.00 | 0.00 | 36 | 1017.2 |
| 20260502223507 | 52 | 312 | 2.6 | 9.6 | 0.00 | 0.00 | 0.00 | 35 | 1017.1 |
| 20260502223004 | 53 | 314 | 1.7 | 9.6 | 0.00 | 0.00 | 0.00 | 35 | 1017.2 |
| 20260502222504 | 53 | 318 | 0.9 | 9.6 | 0.00 | 0.00 | 0.00 | 35 | 1017.1 |
| 20260502222004 | 53 | 323 | 0.9 | 7.0 | 0.00 | 0.00 | 0.00 | 34 | 1017.2 |
| 20260502221503 | 53 | 335 | 0.9 | 7.0 | 0.00 | 0.00 | 0.00 | 36 | 1017.2 |
| 20260502221003 | 54 | 14 | 0.0 | 4.3 | 0.00 | 0.00 | 0.00 | 34 | 1017.2 |
| 20260502220503 | 54 | 334 | 0.0 | 6.1 | 0.00 | 0.00 | 0.00 | 34 | 1017.1 |
| 20260502220004 | 54 | 323 | 0.9 | 7.8 | 0.00 | 0.00 | 0.00 | 32 | 1017.1 |
| 20260502215504 | 54 | 320 | 0.0 | 7.8 | 0.00 | 0.00 | 0.00 | 34 | 1017.1 |
| 20260502215003 | 54 | 301 | 0.9 | 7.8 | 0.00 | 0.00 | 0.00 | 35 | 1017.0 |
| 20260502214503 | 53 | 309 | 3.5 | 10.4 | 0.00 | 0.00 | 0.00 | 38 | 1017.0 |
| 20260502214004 | 53 | 314 | 4.3 | 10.4 | 0.00 | 0.00 | 0.00 | 35 | 1017.1 |
| 20260502213504 | 53 | 313 | 3.5 | 9.6 | 0.00 | 0.00 | 0.00 | 35 | 1017.1 |
| 20260502213003 | 54 | 317 | 3.5 | 14.8 | 0.00 | 0.00 | 0.00 | 34 | 1017.1 |
| 20260502212503 | 54 | 320 | 2.6 | 14.8 | 0.00 | 0.00 | 0.00 | 34 | 1017.0 |
| 20260502212003 | 54 | 313 | 0.0 | 9.6 | 0.00 | 0.00 | 0.00 | 34 | 1017.0 |
| 20260502211504 | 54 | 318 | 1.7 | 9.6 | 0.00 | 0.00 | 0.00 | 35 | 1017.0 |
| 20260502211004 | 54 | 313 | 4.3 | 12.2 | 0.00 | 0.00 | 0.00 | 34 | 1017.0 |
| 20260502210503 | 55 | 309 | 3.5 | 14.8 | 0.00 | 0.00 | 0.00 | 36 | 1016.9 |
| 20260502210003 | 54 | 313 | 1.7 | 14.8 | 0.00 | 0.00 | 0.00 | 35 | 1016.9 |
| 20260502205504 | 54 | 324 | 1.7 | 9.6 | 0.00 | 0.00 | 0.00 | 37 | 1017.0 |
| 20260502205003 | 55 | 325 | 0.9 | 9.6 | 0.00 | 0.00 | 0.00 | 35 | 1017.1 |
| 20260502204504 | 54 | 332 | 0.9 | 7.0 | 0.00 | 0.00 | 0.00 | 36 | 1017.0 |
| 20260502204004 | 54 | 320 | 1.7 | 7.8 | 0.00 | 0.00 | 0.00 | 35 | 1017.1 |
| 20260502203503 | 54 | 316 | 3.5 | 11.3 | 0.00 | 0.00 | 0.00 | 36 | 1017.1 |
| 20260502203003 | 54 | 315 | 2.6 | 11.3 | 0.00 | 0.00 | 0.00 | 34 | 1017.1 |
| 20260502202504 | 54 | 310 | 0.9 | 7.0 | 0.00 | 0.00 | 0.00 | 35 | 1017.1 |
| 20260502202004 | 54 | 323 | 1.7 | 7.8 | 0.00 | 0.00 | 0.00 | 35 | 1017.2 |
| 20260502201503 | 54 | 321 | 1.7 | 10.4 | 0.00 | 0.00 | 0.00 | 34 | 1017.1 |
| 20260502201003 | 54 | 322 | 1.7 | 10.4 | 0.00 | 0.00 | 0.00 | 37 | 1017.2 |
| 20260502200504 | 54 | 325 | 2.6 | 8.7 | 0.00 | 0.00 | 0.00 | 36 | 1017.2 |